Location: Kopernik Observatory
(42.0014°N, 76.0372°W)
Time: 04:59:27
(UTC-05:00)

Daily predictions for brighter satellites

Satellite Brightness Start Highest point End
(mag) Time Altitude Azimuth Time Altitude Azimuth Time Altitude Azimuth
Lacrosse 5 4.4 03:52:22 16° NE 03:52:22 16° NE 03:53:28 10° NE
CENTAUR R/B 4.4 04:09:10 21° N 04:09:10 21° N 04:11:50 10° NNE
Cosmos 2369 Rocket 2.6 04:31:57 58° NE 04:32:19 60° ENE 04:37:55 10° SE
Meteor 1-11 Rocket 4.4 04:31:00 10° S 04:36:37 53° E 04:42:09 10° NNE
Lacrosse 4 Rocket 3.5 04:43:15 19° NE 04:43:54 20° NE 04:46:57 10° E
Meteor 1-13 Rocket 4.3 04:43:13 48° N 04:44:59 79° E 04:50:54 10° SSE
Cosmos 1943 Rocket 3.0 04:56:05 24° N 04:59:06 45° ENE 05:04:22 10° SE
Cosmos 1943 3.0 04:57:04 41° SSW 04:59:08 89° WNW 05:04:50 10° NNE
Cosmos 2341 Rocket 4.3 04:53:26 10° S 04:59:37 65° E 05:05:48 10° NNE
Cosmos 44 Rocket 4.5 05:02:37 32° N 05:02:37 32° N 05:05:38 10° NNE
Cosmos 1452 Rocket 3.5 05:00:58 49° N 05:02:25 80° ENE 05:07:41 10° SSE
CZ-3 R/B 3.6 05:00:23 10° SW 05:12:18 25° S 05:17:01 10° SE
USA 229 DEB 3.7 05:11:41 10° SSW 05:18:34 85° ESE 05:25:34 10° NE
USA 229 3.7 05:11:48 10° SSW 05:18:40 84° ESE 05:25:39 10° NE
Tiangong 2 2.5 05:20:00 32° SSE 05:20:00 32° SSE 05:22:06 10° SE
Cosmos 2154 Rocket 3.9 05:14:29 10° SSW 05:20:38 67° W 05:26:50 10° N
COSMO-SKYMED 1 2.4 05:22:13 10° S 05:26:33 80° WSW 05:28:34 32° NNW
Cosmos 1461 4.3 05:23:09 10° S 05:27:10 39° ESE 05:31:04 10° NE
Cosmos 1900 4.2 05:26:55 44° NW 05:28:22 70° WSW 05:33:17 10° SSE
Cosmos 1536 3.4 05:25:45 10° SSW 05:31:50 25° N 05:33:40 10° N
NOAA 6 3.9 05:26:28 10° N 05:31:32 62° WNW 05:36:35 10° SSW
Lacrosse 5 2.7 05:31:36 31° NNW 05:31:42 31° NNW 05:36:14 10° NNE
USA 129 4.4 05:32:50 10° ESE 05:34:28 19° ENE 05:35:01 17° NE
Okean 2 3.5 05:31:21 13° N 05:35:00 76° E 05:39:08 10° SSE
Cosmos 2084 3.0 05:39:22 32° SW 05:41:00 70° NW 05:44:48 10° NNE
Cosmos 44 4.0 05:41:01 33° WNW 05:42:12 37° NW 05:46:59 10° NNE
SL-8 Rocket 4.0 05:37:40 10° S 05:43:55 86° E 05:50:10 10° N
Cosmos 1892 Rocket 3.6 05:39:35 10° N 05:44:05 86° E 05:48:34 10° S
USA 215 3.3 05:39:26 10° NE 05:46:01 82° SE 05:52:33 10° SW
CZ-4 R/B 3.2 05:42:31 10° NNE 05:46:05 33° E 05:49:36 10° SSE
Meteor 1-28 Rocket 3.1 05:42:36 10° SSE 05:46:25 86° W 05:49:44 14° NNW
Cosmos 1269 Rocket 3.9 05:41:29 10° SSW 05:46:46 84° WNW 05:52:07 10° NNE
Cosmos 2263 4.4 05:46:13 25° NW 05:49:06 46° WSW 05:54:25 10° S
Cosmos 1340 2.5 05:47:12 19° NNW 05:49:47 73° W 05:53:33 10° S
Okean 1-7 Rocket 4.5 05:52:13 27° W 05:52:13 27° W 05:55:40 10° SSW
Lacrosse 5 rocket 3.7 05:49:56 11° NNW 05:52:08 15° NNE 05:54:43 10° NE
CSL-04 Rocket 3.7 05:46:39 10° NNE 05:52:13 87° ESE 05:57:42 10° SSW
Cosmos 1420 Rocket 4.0 05:48:40 17° NNW 05:52:41 63° WSW 05:57:47 10° S
SL-23 DEB 3.3 05:53:20 38° WNW 05:54:25 78° SW 05:58:05 10° SE
Cosmos 1959 Rocket 4.4 05:49:55 10° S 05:56:01 89° ESE 06:02:10 10° N
Cosmos 2366 rocket 4.1 05:51:53 10° S 05:58:11 82° E 06:04:34 10° N
CENTAUR R/B 4.4 05:56:21 12° NNW 05:58:41 14° NNW 06:02:28 10° NNE
Ariane Rocket 3.0 05:56:33 10° N 06:01:33 61° WNW 06:06:31 10° SSW
CSL-04 Debris 4.2 05:57:30 10° NNE 06:03:01 89° WNW 06:08:30 10° SSW
Cosmos 1455 Rocket 2.9 06:02:22 10° S 06:06:42 79° W 06:11:03 10° N
Cosmos 1048 Rocket 3.9 06:01:55 10° SSW 06:06:59 61° WNW 06:12:10 10° NNE
Cosmos 2218 Rocket 4.0 06:04:23 10° SSW 06:10:46 72° W 06:17:10 10° N
ATLAS 5 CENTAUR R/B 4.3 06:08:24 10° N 06:12:29 19° NE 06:16:48 10° ENE
SJ-12 4.5 06:08:27 10° NNE 06:12:36 63° E 06:16:42 10° S
Cosmos 2369 Rocket 3.5 06:13:48 17° WNW 06:15:48 20° W 06:19:47 10° SW
Cosmos 1975 2.8 06:13:33 10° S 06:17:39 89° W 06:21:47 10° N
Meteor 1-29 4.0 06:17:25 10° SSE 06:20:39 45° ENE 06:23:54 10° N
Lacrosse 4 Rocket 1.9 06:19:38 14° NW 06:22:46 40° WSW 06:26:34 10° S
Cosmos 1025 Rocket 4.4 06:20:52 15° NW 06:22:54 20° W 06:26:01 10° SW
SPOT 3 Rocket 4.1 06:18:31 10° NNE 06:23:39 64° ESE 06:28:45 10° S
COSMOS 2406 3.2 06:18:33 10° SSW 06:24:13 84° WNW 06:29:56 10° NNE
ATLAS 3B R/B 4.3 06:21:16 10° NNW 06:26:55 25° NE 06:32:18 10° E
Cosmos 1727 Rocket 4.0 06:26:16 10° NNW 06:32:23 64° W 06:38:30 10° S
MOS 1 4.5 06:29:01 10° NNE 06:34:42 80° ESE 06:40:21 10° SSW
NOSS 3-1 (C) 3.4 06:30:15 10° SW 06:36:06 74° NW 06:42:39 10° NNE
SL-27 R/B 2.7 06:35:59 10° SW 06:39:25 46° WNW 06:42:57 10° N
Abrixas rocket 3.6 06:38:30 11° NW 06:41:18 26° N 06:44:12 10° ENE
MSX 4.4 06:35:36 10° NNE 06:41:19 65° ESE 06:47:01 10° S
Cosmos 494 Rocket 4.2 06:36:47 10° SSW 06:41:54 80° ESE 06:47:05 10° NNE
YAOGAN 1 2.5 06:37:49 10° N 06:42:10 80° WNW 06:46:29 10° SSW
Cosmos 1943 Rocket 3.2 06:38:07 10° NW 06:42:32 25° WSW 06:46:55 10° SSW
Cosmos 1110 Rocket 4.0 06:39:48 10° NNW 06:45:01 71° WSW 06:50:10 10° S
Cosmos 1515 4.3 06:43:23 10° NNW 06:46:56 37° W 06:50:27 10° SSW
Helios 1B rocket 2.6 06:46:00 10° S 06:50:04 55° W 06:54:09 10° NNW
Cosmos 1602 Rocket 3.8 06:47:26 10° NNW 06:51:47 50° W 06:56:03 10° SSW
Cosmos 1666 3.9 06:49:32 10° SSE 06:53:07 45° E 06:56:46 10° NNE
Cosmos 1484 Rocket 3.2 06:49:46 10° NNE 06:53:35 68° ESE 06:57:26 10° S
IDEFIX/ARIANE 42P 2.6 06:51:01 10° N 06:56:08 60° WNW 07:01:15 10° SSW
BREEZE-M DEB (TANK) 4.4 06:47:42 10° WNW 06:58:39 47° N 07:02:09 10° E
CZ-4C R/B 3.8 06:52:20 10° NNW 06:58:56 42° NE 07:06:12 10° ESE
